CZ-6A DEB

Satellite information

Favourite Embed

Satellite Type and Status

DEBRISIN ORBIT

Key statistics

Satellite CZ-6A DEB at a glance.

Uptime

911

Days in orbit

Revolutions

≈ 14.1

Per day

Orbit

SSO

Sun Synchronous Orbit

Inclination

98.8

Latest

Satellite identification and parameters

Extended collection of information and parameters for CZ-6A DEB.

Object identification

Identified? True

Debris? True

Object name: CZ-6A DEB

International designator: 2022-151ZU

Object number (NORAD): 55872

Object ID (CCSDS): 55872

Country: PEOPLES REPUBLIC OF CHINA (PRC)

Current information (Y/N): Y

RCS size: SMALL

Orbital parameters

Period: 102.052 minutes

Inclination: 98.8248 deg

SMA: 7233.931 km

Apoapsis: 885.245 km

Periapsis: 826.347 km

RAAN: 132.0786 deg

Eccentricy: 0.004071

Argument of periapsis: 19.2859 deg

Mean anomaly: 340.9842 deg

Mean motion: 14.11046174 rev/day

Mean motion (dot): 0.00000498 rev/day2

B* drag term: 0.000299 1/REarth

Two-line elements (TLE)

Creation date: May 8, 2025, 10:46 p.m.

Reference frame: TEME

Reference center: EARTH

Epoch: May 8, 2025, 12:05 p.m. UTC

TLE line 0: 0 CZ-6A DEB

TLE line 1: 1 55872U 22151ZU 25128.50384369 .00000498 00000-0 29900-3 0 9998

TLE line 2: 2 55872 98.8248 132.0786 0040710 19.2859 340.9842 14.11046174115962

Live tracking on map

Real-time ground track for satellite CZ-6A DEB.

In-orbit conjunctions

A list of the most updated potential collisions computed for object CZ-6A DEB.

Target Orbit TCA Probability of collision Miss distance Type
NOAA 14 SSO 2025-03-03 09:31:15 0.000377659 504.0 (m) PAYLOAD
COSMOS 1275 DEB LEO 2024-11-10 14:59:44 0.0005457136 322.0 (m) DEBRIS

Associated space launch

Chinese satellite reported for atmospheric/ocean/environmental/spatial parameter research purposes, details TBD.

CZ-6A DEB was lifted into orbit during the mission ‘Long March 6A | Yunhai 3’, on board a Long March 6A space rocket.

The launch took place on Nov. 11, 2022, 10:52 p.m. from Launch Complex 9A.

For more information about the launch, click the button.

Launch to space Long March 6A | Yunhai 3
Long March 6A | Yunhai 3

Agency: N/A

Status: Launch Successful

Launch date: Nov. 11, 2022, 10:52 p.m. UTC

Rocket: Long March 6A

Launch pad: Launch Complex 9A

Location: Taiyuan Satellite Launch Center, People's Republic of China

...

Latest news about this satellite

There are no fresh news available about this satellite. Check back as we update our databases every day.


Newsletter sign-up

Weekly statistics, charts and insights to help you stay on top of the space industry.